Location: Munkebjergskolens Observatorium
(55.3864°N, 10.3987°E)
Time: 13:02:30
(UTC+02:00)

Oscar 19 - Pass Details

Date: 09 April 2023
Orbit: 773 x 789 km, 98.8° (Epoch: 07 June)

Event Time Altitude Azimuth Distance (km) Brightness Sun altitude
Rises 03:52:03 0° 28° (NNE) 3,281 15.4 -19.7°
Reaches altitude 10° 03:55:49 10° 56° (ENE) 2,350 14.2 -19.4°
Maximum altitude 03:58:08 13° 83° (E) 2,150 13.6 -19.2°
Drops below altitude 10° 04:00:26 10° 110° (ESE) 2,347 13.4 -18.9°
Sets 04:04:10 0° 138° (SE) 3,272 13.8 -18.6°
